When you browse on this site, cookies collect data to enhance your experience and personalize the content and advertising you see.
Visit our Privacy Policy to learn more. By continuing to use the site, you agree to this use of cookies and data.
  • In Hungary
  • List of Countries
  • For 7 days
  • Water Temperature
  • Satellite Maps
  • Weather Map
  • News
  • Weather Widgets
  • user-avatar
    Login

    Hourly Weather Gornyy

    Today, 21 January, Monday

    Time Temperature Precipitation Wind Pressure Humidity
    00:00 -16°C° 0 mm 3 mps 763 mmHg 95%
    01:00 -16°C° 0 mm 3 mps 763 mmHg 96%
    02:00 -16°C° 0 mm 3 mps 763 mmHg 96%
    03:00 -17°C° 0 mm 3 mps 763 mmHg 96%
    04:00 -17°C° 0 mm 3 mps 763 mmHg 96%
    05:00 -18°C° 0 mm 4 mps 763 mmHg 96%
    06:00 -18°C° 0 mm 4 mps 762 mmHg 95%
    07:00 -18°C° 0 mm 4 mps 762 mmHg 95%
    08:00 -18°C° 0 mm 5 mps 762 mmHg 94%
    09:00 -17°C° 0 mm 5 mps 762 mmHg 93%
    10:00 -15°C° 0 mm 5 mps 762 mmHg 92%
    11:00 -14°C° 0 mm 5 mps 761 mmHg 92%
    12:00 -14°C° 0 mm 6 mps 761 mmHg 91%
    13:00 -14°C° 0 mm 6 mps 760 mmHg 90%
    14:00 -12°C° 0 mm 6 mps 759 mmHg 89%
    15:00 -12°C° 0 mm 6 mps 759 mmHg 88%
    16:00 -12°C° 0.8 mm 7 mps 758 mmHg 90%
    17:00 -12°C° 0.8 mm 7 mps 757 mmHg 92%
    18:00 -11°C° 0.8 mm 7 mps 756 mmHg 94%
    19:00 -9°C° 1.1 mm 7 mps 755 mmHg 94%
    20:00 -8°C° 1.1 mm 7 mps 754 mmHg 94%
    21:00 -7°C° 1.1 mm 8 mps 753 mmHg 94%
    22:00 -7°C° 0.6 mm 7 mps 753 mmHg 93%
    23:00 -7°C° 0.6 mm 7 mps 753 mmHg 93%

    Tomorrow, 22 January, Tuesday

    Time Temperature Precipitation Wind Pressure Humidity
    00:00 -5°C° 0.6 mm 6 mps 753 mmHg 93%
    01:00 -8°C° 0.1 mm 5 mps 753 mmHg 93%
    02:00 -12°C° 0.1 mm 5 mps 753 mmHg 92%
    03:00 -14°C° 0.1 mm 4 mps 754 mmHg 92%
    04:00 -15°C° 0 mm 4 mps 754 mmHg 93%
    05:00 -16°C° 0 mm 4 mps 755 mmHg 93%
    06:00 -17°C° 0 mm 4 mps 755 mmHg 93%
    07:00 -17°C° 0 mm 4 mps 756 mmHg 93%
    08:00 -18°C° 0 mm 4 mps 756 mmHg 93%
    09:00 -18°C° 0 mm 4 mps 757 mmHg 93%
    10:00 -17°C° 0 mm 4 mps 758 mmHg 93%
    11:00 -16°C° 0 mm 4 mps 758 mmHg 92%
    12:00 -16°C° 0 mm 4 mps 758 mmHg 92%
    13:00 -16°C° 0 mm 4 mps 759 mmHg 92%
    14:00 -17°C° 0 mm 4 mps 759 mmHg 92%
    15:00 -16°C° 0 mm 3 mps 759 mmHg 93%
    16:00 -17°C° 0 mm 3 mps 760 mmHg 94%
    17:00 -18°C° 0 mm 3 mps 760 mmHg 94%
    18:00 -19°C° 0 mm 3 mps 760 mmHg 95%
    19:00 -19°C° 0 mm 3 mps 761 mmHg 95%
    20:00 -21°C° 0 mm 3 mps 761 mmHg 95%
    21:00 -21°C° 0 mm 3 mps 761 mmHg 96%
    22:00 -22°C° 0 mm 3 mps 762 mmHg 96%
    23:00 -22°C° 0 mm 3 mps 762 mmHg 96%

    Day after tomorrow, 23 January, Wednesday

    Time Temperature Precipitation Wind Pressure Humidity
    00:00 -23°C° 0 mm 3 mps 763 mmHg 97%
    01:00 -23°C° 0 mm 3 mps 763 mmHg 97%
    02:00 -24°C° 0 mm 3 mps 763 mmHg 97%
    03:00 -24°C° 0 mm 3 mps 764 mmHg 98%
    04:00 -25°C° 0 mm 3 mps 764 mmHg 97%
    05:00 -24°C° 0 mm 2 mps 764 mmHg 97%
    06:00 -25°C° 0 mm 2 mps 765 mmHg 97%
    07:00 -25°C° 0 mm 2 mps 765 mmHg 96%
    08:00 -25°C° 0 mm 2 mps 766 mmHg 95%
    09:00 -25°C° 0 mm 2 mps 766 mmHg 94%
    10:00 -23°C° 0 mm 2 mps 766 mmHg 94%
    11:00 -19°C° 0 mm 1 mps 767 mmHg 93%
    12:00 -18°C° 0 mm 1 mps 767 mmHg 92%
    13:00 -18°C° 0 mm 1 mps 767 mmHg 92%
    14:00 -19°C° 0 mm 1 mps 767 mmHg 91%
    15:00 -19°C° 0 mm 1 mps 767 mmHg 91%
    16:00 -19°C° 0 mm 1 mps 768 mmHg 91%
    17:00 -20°C° 0 mm 1 mps 768 mmHg 91%
    18:00 -21°C° 0 mm 1 mps 768 mmHg 91%
    19:00 -21°C° 0 mm 1 mps 769 mmHg 91%
    20:00 -21°C° 0 mm 1 mps 769 mmHg 90%
    21:00 -21°C° 0 mm 1 mps 769 mmHg 90%
    22:00 -21°C° 0 mm 1 mps 769 mmHg 89%
    23:00 -24°C° 0 mm 2 mps 770 mmHg 89%

    24 January, Thursday

    Time Temperature Precipitation Wind Pressure Humidity
    00:00 -24°C° 0 mm 2 mps 770 mmHg 88%
    01:00 -24°C° 0 mm 2 mps 770 mmHg 88%
    02:00 -24°C° 0 mm 2 mps 770 mmHg 88%
    03:00 -24°C° 0 mm 2 mps 770 mmHg 88%
    04:00 -25°C° 0 mm 3 mps 770 mmHg 88%
    05:00 -25°C° 0 mm 3 mps 770 mmHg 88%
    06:00 -24°C° 0 mm 3 mps 769 mmHg 89%
    07:00 -24°C° 0 mm 4 mps 769 mmHg 88%
    08:00 -23°C° 0 mm 4 mps 769 mmHg 87%
    09:00 -22°C° 0 mm 5 mps 769 mmHg 87%
    10:00 -21°C° 0.2 mm 5 mps 769 mmHg 89%
    11:00 -22°C° 0.2 mm 6 mps 768 mmHg 91%
    12:00 -21°C° 0.2 mm 6 mps 768 mmHg 93%
    13:00 -20°C° 0.6 mm 7 mps 767 mmHg 93%
    14:00 -20°C° 0.6 mm 7 mps 766 mmHg 94%
    15:00 -19°C° 0.6 mm 8 mps 766 mmHg 95%
    16:00 -19°C° 0.8 mm 7 mps 765 mmHg 94%
    17:00 -18°C° 0.8 mm 7 mps 765 mmHg 94%
    18:00 -18°C° 0.8 mm 7 mps 764 mmHg 94%
    19:00 -18°C° 0.8 mm 7 mps 764 mmHg 94%
    20:00 -17°C° 0.8 mm 7 mps 763 mmHg 94%
    21:00 -16°C° 0.8 mm 6 mps 763 mmHg 94%
    22:00 -15°C° 0.6 mm 6 mps 763 mmHg 94%
    23:00 -15°C° 0.6 mm 6 mps 763 mmHg 94%

    25 January, Friday

    Time Temperature Precipitation Wind Pressure Humidity
    00:00 -15°C° 0.6 mm 6 mps 762 mmHg 94%
    01:00 -13°C° 0.3 mm 5 mps 762 mmHg 94%
    02:00 -13°C° 0.3 mm 5 mps 762 mmHg 94%
    03:00 -12°C° 0.3 mm 4 mps 762 mmHg 94%
    04:00 -11°C° 0.2 mm 4 mps 762 mmHg 94%
    05:00 -11°C° 0.2 mm 4 mps 761 mmHg 95%
    06:00 -11°C° 0.2 mm 4 mps 761 mmHg 95%
    07:00 -10°C° 0.2 mm 3 mps 761 mmHg 95%
    08:00 -9°C° 0.2 mm 3 mps 762 mmHg 95%
    09:00 -9°C° 0.2 mm 3 mps 762 mmHg 95%
    10:00 -9°C° 0.3 mm 3 mps 762 mmHg 95%
    11:00 -8°C° 0.3 mm 3 mps 761 mmHg 96%
    12:00 -8°C° 0.3 mm 3 mps 761 mmHg 96%
    13:00 -8°C° 0.3 mm 3 mps 761 mmHg 96%
    14:00 -8°C° 0.3 mm 3 mps 761 mmHg 96%
    15:00 -7°C° 0.3 mm 3 mps 761 mmHg 96%
    16:00 -7°C° 0.1 mm 3 mps 760 mmHg 96%
    17:00 -7°C° 0.1 mm 3 mps 760 mmHg 96%
    18:00 -8°C° 0.1 mm 4 mps 760 mmHg 95%
    19:00 -8°C° 0.1 mm 4 mps 760 mmHg 95%
    20:00 -8°C° 0.1 mm 4 mps 760 mmHg 95%
    21:00 -8°C° 0.1 mm 4 mps 759 mmHg 95%
    22:00 -8°C° 0 mm 4 mps 759 mmHg 95%
    23:00 -8°C° 0 mm 4 mps 759 mmHg 95%

    26 January, Saturday

    Time Temperature Precipitation Wind Pressure Humidity
    00:00 -7°C° 0 mm 4 mps 758 mmHg 95%
    01:00 -7°C° 0 mm 4 mps 758 mmHg 95%
    02:00 -7°C° 0 mm 4 mps 758 mmHg 95%
    03:00 -7°C° 0 mm 4 mps 757 mmHg 95%
    04:00 -7°C° 0 mm 4 mps 757 mmHg 95%
    05:00 -7°C° 0 mm 4 mps 756 mmHg 95%
    06:00 -7°C° 0 mm 5 mps 756 mmHg 94%
    07:00 -6°C° 0 mm 5 mps 755 mmHg 94%
    08:00 -6°C° 0 mm 5 mps 755 mmHg 94%
    09:00 -5°C° 0 mm 5 mps 755 mmHg 94%
    10:00 -5°C° 0 mm 5 mps 755 mmHg 94%
    11:00 -4°C° 0 mm 4 mps 754 mmHg 94%
    12:00 -3°C° 0 mm 4 mps 754 mmHg 94%
    13:00 -4°C° 0.1 mm 4 mps 753 mmHg 95%
    14:00 -4°C° 0.1 mm 4 mps 753 mmHg 95%
    15:00 -4°C° 0.1 mm 4 mps 753 mmHg 96%
    16:00 -4°C° 0.2 mm 4 mps 752 mmHg 96%
    17:00 -5°C° 0.2 mm 3 mps 752 mmHg 96%
    18:00 -5°C° 0.2 mm 3 mps 752 mmHg 96%
    19:00 -5°C° 0.2 mm 3 mps 751 mmHg 96%
    20:00 -5°C° 0.2 mm 4 mps 751 mmHg 96%
    21:00 -5°C° 0.2 mm 4 mps 751 mmHg 96%
    22:00 -5°C° 0.3 mm 4 mps 750 mmHg 96%
    23:00 -5°C° 0.3 mm 3 mps 750 mmHg 96%
    Show more